Theta_e
289 290 291 292 293 295 296 297 296 296 296 296 295 294 293 292 291 291 291 291 290 290 289 289 288 288 287 287 286 285 284 284 284 283 283 283 283 283 283 282 282 282 282 282 282 282 282 282 281 281 281 281 281 280 280 280 280 280 279 279 279 279
289 289 290 290 292 293 294 295 295 295 295 295 295 295 294 292 290 290 289 290 290 289 288 288 288 288 287 286 285 284 284 284 283 283 282 283 283 283 282 282 281 281 281 281 281 281 280 280 280 280 280 280 280 280 280 279 279 279 279 279 279 278
288 288 289 290 290 292 293 294 294 295 294 294 294 294 293 291 291 290 290 289 289 288 287 287 286 286 286 285 284 283 283 283 283 283 282 282 282 282 281 281 281 281 281 281 281 280 280 280 279 280 280 280 280 279 279 279 279 279 278 278 278 278
287 287 288 288 289 290 291 292 293 293 293 293 293 293 292 291 290 290 289 288 288 287 287 286 286 286 285 284 283 283 283 282 282 282 281 281 282 282 281 281 281 281 281 280 280 280 279 280 279 279 279 279 279 278 278 278 278 278 277 277 277 277
287 287 287 288 289 290 290 291 292 292 292 292 292 292 291 291 290 290 289 287 287 287 286 286 285 285 284 283 283 283 282 282 281 281 281 281 281 281 281 281 280 280 280 280 279 279 279 279 279 279 279 278 278 278 278 278 278 277 277 277 276 276
286 286 287 287 288 289 289 291 291 292 291 291 291 291 290 289 289 288 288 287 287 286 285 285 284 283 283 283 283 282 282 281 280 281 281 281 281 280 280 280 280 280 280 279 279 279 279 279 278 278 278 278 278 278 278 277 277 277 277 277 276 276
285 286 287 287 288 288 289 290 290 291 291 291 291 291 290 289 288 287 287 286 286 285 285 284 284 283 283 283 282 282 281 280 280 280 280 280 280 280 280 280 279 279 279 279 279 279 279 279 278 278 278 278 278 278 277 277 277 277 277 276 276 276
286 286 286 287 288 288 289 289 290 290 290 290 291 290 289 288 287 287 286 286 286 285 284 284 283 283 283 283 282 281 281 280 280 280 280 280 280 279 279 279 279 279 279 279 279 279 279 279 278 278 278 278 278 278 277 277 277 277 276 276 276 276
285 286 286 287 287 288 288 289 289 289 290 289 289 290 289 288 287 287 286 286 286 285 284 284 283 283 283 282 282 281 280 280 280 280 280 280 280 279 279 279 279 280 279 279 279 279 279 278 278 278 277 277 277 277 277 277 277 276 276 276 276 276
286 286 286 286 287 287 288 288 289 289 289 289 288 288 288 287 287 286 286 286 285 285 284 284 283 283 283 282 282 281 280 280 280 280 280 280 280 280 279 279 279 279 279 279 279 279 278 278 277 277 277 277 277 277 277 277 277 276 276 275 275 276
287 286 286 286 286 286 287 287 288 288 288 289 288 287 288 287 286 286 286 285 285 285 285 284 283 283 282 282 281 280 280 280 280 280 280 280 280 280 280 280 280 279 279 279 278 278 278 277 277 277 277 276 276 277 276 277 277 276 275 275 275 275
288 287 286 286 286 286 286 287 287 288 288 288 287 287 287 286 286 286 285 285 285 285 284 283 283 282 282 281 280 280 280 280 280 280 280 280 280 280 280 279 279 279 279 278 278 278 277 277 277 279 280 279 277 277 277 276 276 276 276 276 275 275
288 287 286 286 286 286 286 287 287 287 287 287 287 287 286 286 286 286 285 285 285 285 284 283 282 282 281 281 281 281 280 280 281 280 280 280 280 279 279 279 279 278 278 278 278 277 277 277 277 280 282 282 281 277 277 276 277 276 276 276 275 275
289 287 287 287 286 286 286 286 287 287 287 287 287 287 286 286 286 285 285 285 285 284 283 283 282 282 282 281 281 281 281 281 281 280 280 280 279 279 279 278 278 278 278 278 277 277 277 277 279 282 283 283 282 280 277 277 277 277 276 276 276 276
291 290 289 288 287 286 286 287 286 287 287 287 287 286 285 285 285 285 285 284 284 284 283 283 282 282 282 282 281 281 281 281 280 280 279 279 280 279 278 279 278 278 278 277 277 276 276 276 281 283 284 284 284 282 279 278 277 277 277 277 276 276
291 290 289 288 287 287 287 287 287 287 287 287 285 285 285 285 284 284 284 283 283 283 283 282 282 282 282 282 282 281 281 280 280 280 280 280 279 279 278 278 278 278 277 277 277 276 276 276 281 283 284 284 284 284 282 277 277 277 277 277 276 276
289 287 286 286 286 285 285 285 285 285 285 285 284 284 284 284 284 283 283 283 282 282 282 282 282 283 283 282 282 281 281 280 280 280 280 279 279 278 278 278 278 277 277 277 277 276 276 276 281 284 284 284 285 285 285 279 278 277 277 277 277 276
289 288 287 285 284 284 285 284 284 284 284 284 284 283 283 283 283 283 282 282 282 282 282 282 282 282 282 282 281 281 281 281 280 280 280 279 279 279 279 278 278 277 277 277 277 276 276 276 282 283 284 285 285 286 284 282 279 278 277 277 277 277
286 285 283 283 284 284 284 284 284 284 283 283 282 282 282 282 282 282 282 282 282 282 282 282 282 282 281 281 281 280 280 280 280 280 280 279 279 279 278 278 278 278 277 277 276 276 276 276 281 283 284 285 286 285 283 283 282 280 278 277 277 277
282 282 283 282 282 283 283 283 283 283 282 282 281 282 281 282 282 282 282 282 281 281 281 282 281 281 281 281 281 281 281 281 280 280 279 279 278 278 277 277 277 277 277 277 276 276 276 276 279 283 284 285 286 285 283 283 282 281 280 279 279 278
282 282 282 282 281 282 283 283 282 282 281 281 281 281 281 281 281 281 281 281 281 280 281 281 281 281 281 281 281 281 280 280 280 279 279 279 279 278 278 278 277 277 277 277 277 279 277 277 279 282 283 284 285 285 283 283 282 281 281 280 279 279
281 281 281 281 281 281 282 282 282 281 281 280 280 280 280 281 281 281 281 281 280 280 281 281 281 281 281 281 281 281 281 280 279 279 279 279 279 278 278 278 278 277 277 277 277 277 278 277 277 280 283 284 285 285 283 282 282 281 280 280 280 279
282 281 280 280 281 281 281 282 281 280 280 280 280 280 281 281 281 281 281 280 280 280 280 281 281 281 281 281 281 281 280 280 280 279 279 278 278 278 278 277 277 277 277 277 277 277 277 278 277 278 282 283 284 285 284 282 281 281 280 280 280 279
279 279 279 279 280 280 281 281 280 279 279 279 280 280 280 280 281 281 280 280 279 279 279 279 280 280 280 280 280 280 280 280 280 279 279 278 278 277 277 277 277 277 277 277 277 277 277 277 278 277 280 282 283 283 284 282 281 281 280 279 279 279
279 278 278 278 279 280 280 280 279 279 279 279 279 279 280 280 280 280 280 279 279 279 279 280 281 281 281 280 281 280 279 279 279 279 278 278 278 277 277 277 277 276 276 276 276 276 276 275 275 278 277 279 282 283 283 284 283 283 282 280 278 278
278 278 277 278 278 279 280 280 279 278 278 278 279 279 280 280 280 280 279 279 278 278 279 280 281 282 281 281 281 280 279 279 279 278 278 278 278 277 277 277 276 275 275 275 275 275 274 274 274 276 278 277 279 281 282 283 283 283 281 281 280 280
278 278 277 277 277 276 277 278 279 278 278 278 279 280 279 279 279 279 279 278 278 278 278 279 279 280 281 281 281 280 279 279 278 278 277 277 277 277 276 276 275 275 275 275 274 275 275 274 273 272 274 278 278 280 280 281 282 282 283 281 281 281
278 277 276 274 274 275 275 275 278 279 278 277 278 279 279 279 279 278 277 277 278 278 278 278 278 279 280 280 281 281 281 279 278 278 276 277 277 276 276 275 274 274 274 274 274 274 274 273 272 272 271 273 276 277 279 280 281 281 281 281 280 281
277 276 275 273 271 271 272 271 271 273 275 276 278 278 279 279 279 278 278 278 278 278 278 278 279 279 278 278 278 278 278 277 277 276 275 275 275 275 274 274 273 273 273 273 273 273 272 271 271 271 270 269 270 272 273 275 276 279 279 279 279 279
277 275 274 272 270 270 269 269 268 267 269 271 275 276 277 277 277 277 276 275 276 276 276 276 273 275 275 274 275 275 274 273 275 275 274 274 274 273 273 272 272 272 272 272 272 271 271 271 271 271 270 270 269 269 269 269 269 270 270 271 272 273
275 274 272 270 269 269 268 267 266 266 268 270 271 276 276 275 273 273 272 273 273 273 273 274 274 274 274 272 272 270 271 274 274 274 273 271 273 274 273 272 272 272 272 273 272 271 271 270 270 271 274 272 273 270 268 267 268 268 268 271 274 272
274 272 270 269 269 268 267 266 266 265 266 266 269 274 274 273 272 272 271 272 272 271 272 271 271 270 272 272 271 270 270 274 276 274 273 270 275 277 278 277 273 272 271 271 271 271 272 272 271 276 278 278 278 279 278 276 275 275 272 273 276 276
272 270 269 268 267 267 266 265 264 264 265 266 269 273 273 273 273 272 270 271 270 271 270 270 270 269 269 270 270 270 270 270 272 279 279 277 277 278 279 280 279 279 276 272 269 270 277 277 278 278 279 279 280 280 280 281 281 280 280 279 276 275
271 270 268 267 266 265 264 264 262 262 262 262 266 271 273 273 273 272 270 270 269 269 268 269 268 268 268 267 268 269 269 270 269 270 277 279 278 279 279 279 279 280 280 279 278 274 273 276 279 280 280 280 280 280 281 281 281 281 281 281 281 277
270 268 267 265 264 264 264 263 261 261 261 260 263 268 271 271 272 270 268 267 267 267 267 268 268 268 268 267 266 266 268 269 269 269 266 269 276 278 278 277 277 277 277 277 277 277 277 277 277 278 278 278 279 279 279 280 280 280 281 281 279 277
267 266 265 264 264 264 264 262 259 258 258 258 261 265 267 267 268 268 268 268 267 268 267 267 267 267 266 265 266 266 265 265 267 266 267 266 266 268 271 273 273 274 274 275 276 275 275 275 276 276 276 276 277 277 278 278 278 279 279 278 275 275
265 264 264 264 264 263 262 259 258 257 257 257 262 267 266 266 266 265 265 265 265 266 266 265 265 264 263 263 263 264 263 263 262 263 263 264 265 264 263 260 261 267 273 271 271 273 274 274 274 274 275 275 275 275 275 275 272 271 271 272 271 270
264 263 263 263 263 262 261 258 257 257 257 257 261 265 265 265 265 264 264 263 263 263 264 263 262 263 263 262 261 261 261 262 262 263 261 261 260 259 258 258 259 258 265 269 269 271 273 273 273 273 273 273 272 272 272 267 267 267 268 268 268 267
Wind_Speed
8 9 10 10 9 10 10 10 11 10 11 12 14 15 14 14 11 10 9 10 9 9 11 11 10 8 8 6 6 6 8 8 8 9 8 6 6 7 8 8 7 7 6 5 6 5 6 5 5 5 5 5 6 5 5 4 4 5 5 4 5 5
9 10 11 11 12 11 9 10 9 12 12 12 12 10 10 11 11 11 12 11 10 9 9 9 9 9 10 9 10 9 9 9 9 9 10 9 7 7 8 8 8 8 8 6 6 6 6 6 5 5 6 5 5 5 5 4 3 4 5 5 3 4
7 7 7 8 6 7 8 9 11 11 10 11 11 14 13 14 13 12 12 10 11 11 12 11 10 10 9 9 9 9 9 9 9 9 9 9 8 8 9 9 8 8 7 8 7 7 7 7 6 5 5 5 6 5 5 4 3 4 4 4 5 3
6 5 5 5 7 8 10 9 8 10 11 12 12 12 12 13 12 12 11 11 10 12 12 12 10 10 9 10 10 10 10 9 9 9 10 9 7 8 9 9 8 7 8 8 8 7 7 6 7 6 6 6 7 6 3 4 4 4 4 4 4 4
5 6 7 8 9 9 9 9 11 11 12 11 11 13 13 13 12 11 10 11 11 12 11 11 11 10 11 11 9 11 10 9 9 9 9 9 8 6 7 8 8 9 8 8 7 8 7 7 7 5 6 6 7 7 5 4 5 6 6 6 5 5
5 6 7 8 8 9 10 10 10 10 11 12 11 14 13 12 11 11 11 11 11 11 11 11 10 11 10 10 9 11 11 10 10 10 9 8 7 8 7 7 8 8 9 8 8 7 7 7 6 6 6 7 7 7 7 6 5 5 5 5 6 6
7 8 8 8 9 8 9 10 10 11 11 11 12 11 11 11 10 11 11 12 12 11 12 12 11 10 10 10 8 11 10 11 11 9 10 9 8 7 7 7 7 8 8 8 8 8 8 8 8 7 7 6 6 6 6 6 5 5 5 5 5 5
7 6 8 8 9 10 10 10 10 10 10 11 10 10 10 10 10 11 12 11 12 12 12 12 11 11 12 12 10 9 10 12 10 10 9 9 10 8 7 8 7 8 8 7 7 7 7 7 7 7 8 7 6 6 6 5 6 5 5 5 6 6
9 9 9 9 10 10 10 10 11 10 10 10 10 9 10 10 10 11 12 12 13 12 12 11 11 10 11 10 10 9 9 12 10 10 10 8 9 9 9 8 8 7 8 8 8 8 9 8 8 7 7 7 6 6 6 6 5 5 4 5 5 5
8 9 11 10 11 9 9 9 10 10 10 11 9 9 9 8 11 12 12 12 12 11 11 10 9 10 9 9 9 9 10 11 10 9 7 9 12 10 10 10 10 8 7 8 8 8 7 8 7 7 7 7 7 6 6 6 5 5 5 5 4 4
8 9 10 10 9 11 11 9 9 8 8 8 9 9 11 10 11 12 12 11 12 12 11 10 9 8 8 9 9 9 10 9 9 10 10 10 10 8 9 9 9 9 8 8 8 8 7 6 6 6 7 7 7 6 6 6 6 5 5 5 5 5
8 8 7 9 11 11 10 10 10 11 11 10 10 11 10 10 12 12 12 12 12 10 10 11 11 11 10 10 11 11 10 10 10 10 10 10 10 11 10 10 9 10 10 9 8 7 6 6 6 8 13 11 9 7 6 5 5 5 5 5 4 5
7 7 9 11 12 12 11 11 10 9 9 10 11 11 10 10 11 11 12 12 10 10 10 10 11 11 12 12 11 10 11 11 10 10 10 10 8 9 8 9 10 10 10 10 9 9 7 6 6 14 16 15 14 8 7 6 4 5 5 5 6 7
8 10 12 12 11 11 11 10 10 10 12 11 11 10 10 11 11 12 11 11 10 10 11 11 11 12 12 12 11 11 10 10 9 9 9 9 8 8 8 10 11 10 9 8 8 9 8 8 10 17 16 15 15 11 7 4 4 4 5 6 6 7
11 11 11 9 10 11 12 11 11 13 12 11 10 9 11 11 11 11 10 10 10 10 10 10 11 11 10 11 11 11 10 11 9 8 8 10 8 7 8 10 9 8 8 9 10 9 8 7 13 16 16 16 16 15 10 4 4 4 5 6 6 7
8 8 8 7 8 10 9 10 11 8 7 8 8 10 9 10 8 8 8 8 8 8 9 10 9 9 9 9 9 10 11 11 11 11 9 7 7 8 8 9 10 8 9 9 8 8 7 8 13 17 17 16 16 16 12 6 5 5 5 7 7 8
5 4 5 7 7 5 6 6 5 6 7 8 8 7 8 7 7 7 7 8 7 7 6 8 7 7 6 6 5 6 6 8 8 9 9 8 9 9 9 9 8 7 7 7 7 8 8 7 14 16 17 16 17 16 12 5 5 5 5 7 7 8
8 7 7 4 5 6 6 7 7 8 8 8 9 8 7 7 8 8 8 9 9 9 9 9 9 8 8 8 8 8 8 7 8 8 6 6 5 4 4 4 5 7 8 7 6 6 6 6 15 16 17 17 16 16 8 5 5 6 7 8 8 8
5 5 3 5 6 8 7 8 9 9 9 9 9 10 9 9 10 10 10 10 10 11 11 11 11 9 9 10 10 10 10 10 8 7 6 6 5 5 4 4 4 4 5 6 6 6 5 5 12 16 16 17 17 11 5 6 5 6 9 10 10 9
2 3 6 7 6 6 7 9 10 10 10 9 9 10 9 10 10 9 10 9 8 9 9 9 9 10 9 9 10 10 8 8 6 7 7 8 7 7 6 5 4 4 5 6 7 7 6 5 8 14 15 15 15 11 7 6 7 8 9 10 9 8
5 6 7 8 8 7 8 9 10 10 9 9 9 9 9 9 9 9 8 9 8 8 9 8 9 10 10 10 9 9 10 10 9 7 7 7 6 7 6 6 6 6 5 6 8 8 8 7 7 12 13 14 14 11 7 7 9 10 10 9 10 10
8 7 7 8 7 7 9 8 9 9 9 8 8 7 8 9 9 7 7 8 8 7 8 8 9 9 10 10 8 8 8 7 8 8 8 7 7 7 7 7 7 9 8 7 6 6 6 6 5 8 14 14 14 16 9 7 10 11 10 10 9 10
6 7 7 7 8 8 8 8 9 7 7 8 7 8 8 6 7 8 8 8 7 7 7 7 8 10 8 9 9 9 8 8 9 8 8 8 6 6 6 6 5 4 4 4 5 6 6 6 7 7 13 14 16 18 16 8 10 9 9 9 10 10
8 8 7 5 7 7 7 8 9 7 7 7 7 6 5 6 7 7 7 7 7 7 6 7 5 7 7 7 8 8 7 6 7 8 8 6 7 8 7 6 5 5 5 4 4 4 5 4 7 6 11 16 17 17 19 11 10 10 9 10 11 11
9 8 7 6 6 7 6 9 9 7 7 7 6 6 7 7 7 7 7 7 8 8 8 7 8 8 7 7 8 9 8 7 7 7 7 8 7 7 7 6 5 5 4 3 3 4 4 5 6 11 9 13 16 17 18 20 14 14 11 10 13 12
9 9 6 5 5 5 6 9 9 7 7 6 5 6 6 7 7 7 7 7 7 7 7 7 7 7 7 8 8 8 8 8 7 7 6 7 7 6 6 5 5 4 4 5 5 4 5 4 4 7 11 10 15 16 18 18 19 18 11 10 11 10
11 10 8 6 5 4 4 5 10 7 7 5 6 7 8 7 8 8 7 7 7 7 7 7 7 7 7 7 9 9 7 7 7 6 5 6 5 5 5 5 5 6 5 5 6 5 3 4 4 4 7 12 12 14 15 17 18 18 20 14 12 11
10 11 11 7 5 5 4 3 6 9 6 5 5 6 8 8 8 8 8 7 7 7 8 8 6 6 7 7 6 7 7 8 7 6 5 6 5 5 5 5 5 5 4 4 4 3 2 3 3 4 4 6 7 9 14 17 18 19 20 19 15 17
11 10 9 9 4 5 5 6 5 4 5 6 6 7 8 8 8 8 7 8 7 7 7 8 7 6 6 5 5 5 5 5 5 6 6 6 6 5 4 4 4 3 3 4 3 3 2 3 3 3 3 3 3 5 6 7 9 13 14 12 10 11
12 11 10 9 5 5 6 6 5 3 4 4 6 7 8 8 8 8 7 8 7 7 7 7 8 9 6 6 6 6 5 5 6 6 7 7 7 6 5 4 4 5 5 5 4 3 2 3 3 3 4 4 4 4 3 4 4 4 3 5 7 7
11 10 11 8 5 6 7 6 4 4 4 3 5 7 9 8 7 8 7 6 7 6 6 7 7 7 7 6 5 3 3 7 6 6 3 1 4 6 7 6 5 5 4 5 4 4 4 3 4 6 6 5 7 7 4 4 5 4 4 8 12 8
12 13 11 8 6 7 7 6 4 4 4 2 4 7 10 9 8 8 6 6 6 6 6 6 6 6 7 7 6 6 5 4 5 5 5 4 5 8 7 6 5 4 4 4 3 4 4 4 4 6 8 9 10 11 11 11 11 11 9 10 15 11
9 12 11 8 6 7 7 6 5 5 5 3 2 7 9 9 8 6 6 6 6 6 6 6 6 6 6 6 7 6 7 6 5 4 5 5 5 5 6 6 5 6 7 5 2 4 8 9 8 8 8 8 9 10 11 12 12 14 15 17 11 8
10 11 11 7 7 8 7 7 5 5 4 3 2 5 8 8 9 9 7 6 5 6 6 5 6 6 6 6 6 7 7 7 7 5 7 8 5 4 4 2 1 1 0 3 2 1 1 4 7 8 8 9 9 10 11 11 12 12 13 13 14 8
9 9 8 8 8 8 7 8 5 5 5 4 2 3 7 6 8 10 7 6 6 6 6 6 6 6 7 7 7 6 6 7 7 8 4 6 8 10 10 12 13 13 10 8 9 9 6 5 5 5 6 7 8 8 9 10 11 12 13 13 9 8
9 9 8 9 9 8 7 9 6 5 4 3 2 4 6 6 6 7 8 7 7 7 6 6 5 6 5 4 4 5 6 4 5 6 7 7 6 6 8 12 14 12 11 10 9 8 8 8 7 6 5 5 6 8 9 9 7 8 9 8 5 5
9 8 7 8 10 10 10 10 5 5 4 3 3 7 8 8 8 7 8 8 6 5 5 5 4 5 5 5 5 5 5 5 4 5 6 6 7 7 5 1 4 8 11 8 8 8 9 7 7 7 7 7 7 8 7 7 5 3 4 5 5 4
8 7 8 9 10 10 11 9 5 5 4 4 4 8 8 8 8 7 6 6 6 6 5 5 5 4 5 5 5 5 5 6 6 6 6 6 5 6 5 3 3 2 5 12 12 12 10 8 8 9 9 9 10 9 7 2 2 1 1 2 2 2
Wind_Direction
210 203 202 202 203 200 197 190 186 188 190 188 190 192 190 186 186 185 185 184 180 181 184 181 180 181 181 175 165 162 170 170 162 160 138 125 150 142 142 141 143 144 138 142 136 128 118 112 113 115 114 118 116 110 109 121 134 125 119 125 126 129
211 203 198 196 196 195 195 190 187 192 193 191 192 190 182 178 181 182 186 184 178 177 176 182 183 182 180 175 167 169 177 175 168 159 147 162 151 154 144 146 151 149 146 144 136 128 122 121 119 122 120 120 113 119 123 131 131 122 120 124 118 128
219 215 213 206 199 195 189 192 194 193 189 193 189 188 186 187 186 184 188 177 182 174 181 180 178 181 175 168 172 173 175 170 169 170 154 134 161 152 153 153 152 149 146 140 139 135 136 133 130 127 126 119 116 108 113 118 119 118 115 118 120 125
217 222 212 209 197 199 196 195 190 193 195 194 191 192 193 187 187 188 181 183 181 182 181 181 180 177 174 174 173 175 171 172 175 156 140 165 153 160 157 154 148 146 145 142 137 136 137 136 132 131 127 125 119 112 109 127 128 129 130 135 141 148
199 201 202 205 208 207 201 197 196 197 196 192 194 195 197 189 187 182 180 181 182 185 183 179 180 174 177 177 177 176 171 172 152 144 153 156 155 158 160 155 149 147 142 138 139 140 140 142 136 132 127 124 128 134 143 150 154 157 161 168 171 160
175 188 204 210 213 209 209 208 204 199 199 197 193 200 192 186 182 179 179 182 184 183 180 183 180 177 177 178 178 178 174 158 146 148 151 150 149 155 149 145 144 140 145 140 143 146 142 140 138 134 135 137 144 150 158 162 166 172 181 170 164 162
194 205 203 208 211 211 211 211 207 205 204 198 199 199 190 183 179 178 181 182 182 182 185 185 181 179 179 180 175 179 167 149 149 154 153 146 151 152 145 143 145 144 147 152 155 153 152 151 147 145 143 145 150 155 156 162 166 175 181 184 176 170
208 207 208 211 212 208 208 210 209 209 207 205 199 193 184 184 177 182 180 183 182 184 188 187 182 185 183 180 177 173 158 153 156 154 151 156 151 149 158 152 158 161 156 151 153 151 149 151 153 152 152 148 145 146 156 165 174 172 178 181 184 180
219 216 213 214 213 209 208 206 207 207 206 204 197 192 184 180 177 180 184 184 186 185 190 186 184 183 182 181 176 168 160 158 156 155 157 160 153 156 159 163 158 167 158 155 153 158 157 156 154 155 148 142 144 152 158 168 174 175 178 187 184 186
220 218 216 214 216 210 214 209 207 204 203 201 192 187 182 179 178 183 186 185 189 189 186 181 179 183 179 174 170 165 165 158 151 158 153 161 167 168 169 167 169 162 159 156 159 156 154 153 152 149 144 145 151 154 160 166 171 176 180 181 191 193
231 223 218 219 212 213 211 206 205 203 205 200 190 186 190 175 179 184 184 186 192 190 178 170 170 171 168 165 163 167 169 168 168 170 168 171 172 174 173 171 167 156 158 160 163 155 156 154 156 153 153 144 154 159 159 165 173 178 179 182 192 203
242 235 220 218 215 215 208 204 203 202 199 195 187 190 188 171 185 182 185 190 192 182 173 170 167 168 164 165 171 174 170 169 172 169 171 176 179 177 174 170 169 167 165 159 155 153 153 155 164 163 163 164 159 157 153 150 169 179 187 187 188 211
242 234 224 225 216 214 207 206 203 199 199 193 190 191 182 178 183 186 188 191 183 175 170 170 172 166 170 174 171 170 170 170 173 177 177 178 179 172 164 164 166 177 175 168 162 159 162 162 164 167 172 171 168 155 159 172 168 173 188 200 203 216
239 230 229 226 216 207 204 201 198 192 201 190 191 184 172 182 185 187 189 184 177 175 172 173 170 172 173 168 173 172 174 170 171 174 176 173 171 174 170 175 180 177 169 165 162 169 170 170 168 173 174 174 170 166 168 164 160 169 189 204 214 223
235 231 233 224 210 203 205 195 189 201 193 187 185 164 177 184 184 183 183 179 176 174 170 168 171 173 173 177 174 171 167 171 169 163 170 182 179 163 171 179 169 173 170 169 171 174 169 163 172 174 175 176 177 177 170 162 168 171 194 207 212 225
242 239 236 226 211 205 200 190 197 193 174 168 158 170 175 175 178 176 176 169 174 166 165 167 169 174 176 176 172 168 169 171 173 172 171 163 161 172 178 177 180 176 173 174 173 164 162 169 180 180 177 176 179 183 177 178 179 191 202 208 210 225
262 258 242 226 208 190 160 175 164 133 140 147 152 157 155 163 160 164 159 162 160 155 158 158 163 165 161 154 148 160 165 164 164 162 168 174 178 178 181 179 175 174 172 173 169 169 176 180 181 179 176 178 183 187 183 167 176 194 214 217 213 225
234 233 235 194 155 156 162 159 145 140 142 141 146 146 152 154 159 160 154 161 163 163 161 157 160 156 154 151 149 154 159 159 167 166 159 155 152 153 150 162 166 171 174 171 168 164 174 179 183 181 179 181 185 186 185 175 180 203 220 227 222 226
229 221 151 149 155 150 153 146 140 135 134 139 146 150 156 160 167 171 170 170 170 168 165 163 160 160 158 158 158 163 162 162 164 158 143 143 145 148 160 163 169 155 152 155 162 170 179 179 190 187 184 185 185 182 189 197 199 213 223 233 231 232
155 142 142 137 137 142 138 140 136 135 139 144 149 153 161 169 176 172 171 172 168 163 160 157 154 154 158 159 168 166 157 150 146 145 149 153 152 159 161 152 144 151 158 165 174 181 182 187 199 194 191 191 188 184 193 206 216 230 228 240 238 235
134 127 118 123 126 139 135 134 131 132 139 147 154 156 162 175 172 169 172 167 159 154 152 153 154 156 160 165 164 157 154 158 157 149 150 153 154 160 152 160 165 173 180 181 185 177 181 186 191 199 201 200 200 198 207 214 233 238 238 238 245 241
108 103 117 125 133 130 129 128 129 134 143 148 145 155 171 179 174 164 148 145 151 152 154 158 158 158 160 159 149 151 150 139 136 153 161 163 165 165 169 173 178 183 192 187 180 183 179 175 183 198 208 211 212 215 213 222 231 240 241 241 246 252
105 119 127 128 129 129 128 128 125 131 134 139 149 176 180 164 146 148 148 142 143 149 153 155 157 155 157 155 154 151 148 155 157 157 161 163 161 158 164 173 174 170 162 164 180 185 195 190 194 200 210 219 222 225 223 223 230 237 245 249 250 249
97 95 88 103 120 123 125 123 121 125 135 146 174 178 141 138 139 135 136 141 142 144 146 147 140 143 143 139 136 140 146 149 149 155 156 154 155 161 165 167 173 178 187 185 189 197 203 197 198 203 216 220 225 226 226 227 232 229 241 252 254 252
106 106 111 111 115 119 125 122 125 137 146 160 169 144 140 137 138 138 138 140 144 148 149 147 146 142 140 144 149 147 146 145 144 146 146 148 154 162 168 176 177 182 200 205 211 208 207 205 204 213 216 223 228 229 230 233 236 234 233 244 255 253
111 107 101 99 105 114 123 128 130 140 143 158 157 139 132 132 132 132 132 136 138 137 139 142 140 139 143 145 143 140 139 145 145 146 153 155 159 165 176 183 173 181 199 214 224 214 214 206 201 220 222 222 230 236 239 243 245 246 244 245 255 261
119 110 94 80 83 87 108 130 131 136 144 167 144 143 137 135 133 131 134 136 141 139 138 135 138 139 140 142 143 141 144 143 149 148 156 154 161 167 179 182 173 192 204 208 221 222 203 192 198 209 224 230 231 236 242 247 250 251 251 254 255 256
105 108 106 81 70 78 79 88 131 138 158 146 141 137 134 132 130 131 134 136 137 138 135 129 123 128 135 141 150 151 154 155 160 155 152 163 172 172 181 180 181 196 199 214 229 224 203 184 188 207 218 227 237 241 243 245 247 249 249 251 258 259
114 113 110 100 55 76 75 85 65 100 128 137 139 134 132 131 130 130 131 133 131 131 135 136 139 135 135 136 132 130 135 139 147 148 155 169 174 178 181 177 180 187 186 215 228 226 217 223 214 217 218 219 225 235 243 250 256 260 262 264 270 276
126 123 116 108 98 88 87 79 74 51 85 114 124 126 121 121 127 129 130 130 131 136 138 135 137 136 137 142 140 137 130 144 152 157 170 177 180 175 187 177 191 195 199 210 212 207 216 230 227 224 217 219 215 227 228 242 253 258 256 270 277 274
123 121 114 111 106 100 90 81 63 38 61 99 128 123 118 117 115 116 119 124 122 128 132 138 145 145 142 141 122 99 131 157 167 170 175 199 167 178 172 187 197 201 202 192 188 185 222 236 238 238 219 215 209 204 203 228 221 224 231 242 252 264
125 123 115 111 111 103 98 85 65 41 34 43 115 122 120 122 118 116 122 127 129 134 132 133 136 138 138 138 138 116 64 75 139 157 155 192 188 189 191 167 181 188 173 179 215 189 200 218 226 236 242 239 240 240 230 222 219 220 222 233 244 246
118 114 111 114 108 99 92 82 49 44 26 23 75 124 126 130 123 121 128 130 140 144 138 135 131 134 130 135 134 129 123 89 58 93 135 145 153 172 197 198 200 176 163 155 189 238 226 231 243 250 254 257 260 263 270 274 267 255 245 239 244 253
130 125 123 120 111 101 94 82 47 35 15 6 48 124 128 138 136 139 146 138 136 129 128 127 131 131 128 131 138 143 141 134 113 61 70 80 108 133 136 137 130 294 292 187 174 115 307 281 265 263 271 275 274 273 273 274 273 274 274 273 268 256
125 120 117 117 116 106 96 86 46 16 8 6 360 117 129 137 133 132 132 132 128 123 127 131 134 141 140 146 144 147 148 146 149 137 111 43 64 86 88 76 64 60 61 50 40 39 40 29 13 351 325 314 317 313 305 297 294 291 290 285 276 265
117 115 117 111 113 110 105 86 26 359 355 344 34 97 109 109 108 118 132 140 140 133 139 140 142 135 132 122 123 127 130 127 132 136 135 116 100 72 61 55 48 46 50 54 60 53 41 33 29 17 341 331 323 315 302 295 303 309 317 336 332 327
114 99 98 112 110 105 92 78 27 329 345 1 72 109 103 104 104 102 93 97 105 115 118 113 109 113 111 105 105 110 107 106 95 107 120 136 139 136 114 33 358 23 48 57 41 41 41 39 32 33 30 23 10 2 351 13 20 19 2 15 18 21
85 96 102 102 103 101 91 61 359 359 4 22 74 96 96 97 99 98 98 89 88 93 95 92 92 92 96 100 97 95 99 96 97 97 99 95 96 101 94 54 23 346 355 44 36 36 40 48 50 53 44 36 30 21 23 38 3 38 1 50 20 33